Location: T�bingen+AIT
(48.5342°N, 9.0700°E)
Time: 20:29:32
(UTC+02:00)

USA 229 - Pass Details

Date: 14 September 2017
Orbit: 1049 x 1163 km, 63.4° (Epoch: 19 September)

Event Time Altitude Azimuth Distance (km) Brightness Sun altitude
Rises 21:53:09 0° 317° (NW) 3,939 8.0 -21.8°
Reaches altitude 10° 21:55:50 10° 314° (NW) 2,994 7.1 -22.2°
Maximum altitude 22:02:49 59° 237° (WSW) 1,295 4.2 -23.1°
Enters shadow 22:06:21 31° 171° (S) 1,890 4.6 -23.6°
